CCA1303 ZBAA-ZGSZ

Flight info

Callsign CCA1303
Flight time N/A
Altitude 36100
Route RUSDO9Z RUSDO/K0896S1160 W45 IPLEV/K0900S1130 B458 DADGA/K0891S1160 W37 GUSIV/K0893S1190 W37 PEXID/K0898S1160 W37 OMBEB/K0893S1190 R473 NNX/K0904S1160 R473 NOLON W90 POU W7 SAREX
Aircraft B77W/H-SDE1E2E3FGHIJ2J3J4J5M1RWXY/LB1D1

Departure

Time N/A
Airport Beijing Capital International Airport (ZBAA)

Arrival

Time 2026-04-28 07:14
Airport Shenzhen Bao'an International Airport (ZGSZ)
Time Latitude Longitude Altitude Speed Heading
2026-04-28 06:19 28.17197 113.71360 35962 ft 459 kts 189°
2026-04-28 06:20 28.10800 113.70879 35956 ft 461 kts 189°
2026-04-28 06:20 28.04433 113.70315 35955 ft 458 kts 189°
2026-04-28 06:21 27.98042 113.69739 35957 ft 460 kts 189°
2026-04-28 06:21 27.91618 113.69161 35958 ft 459 kts 189°
2026-04-28 06:22 27.85228 113.68587 35966 ft 463 kts 189°
2026-04-28 06:22 27.78835 113.68018 35972 ft 461 kts 189°
2026-04-28 06:23 27.72399 113.67443 35967 ft 463 kts 189°
2026-04-28 06:23 27.65989 113.66873 35968 ft 463 kts 189°
2026-04-28 06:24 27.59492 113.66521 35967 ft 466 kts 185°
2026-04-28 06:24 27.52988 113.66419 35959 ft 466 kts 185°
2026-04-28 06:25 27.46483 113.66298 35959 ft 469 kts 185°
2026-04-28 06:25 27.39931 113.66166 35945 ft 466 kts 186°
2026-04-28 06:26 27.33400 113.66027 35942 ft 469 kts 185°
2026-04-28 06:26 27.26866 113.65887 35951 ft 467 kts 186°
2026-04-28 06:27 27.20300 113.65760 35933 ft 471 kts 183°
2026-04-28 06:27 27.13744 113.66923 35945 ft 481 kts 170°
2026-04-28 06:28 27.07219 113.68851 35940 ft 480 kts 170°
2026-04-28 06:28 27.00763 113.70763 35940 ft 483 kts 170°
2026-04-28 06:29 26.94268 113.72681 35940 ft 481 kts 170°
2026-04-28 06:29 26.87751 113.74603 35952 ft 482 kts 169°
2026-04-28 06:30 26.81285 113.76505 35963 ft 483 kts 170°
2026-04-28 06:30 26.74781 113.78416 35975 ft 484 kts 170°
2026-04-28 06:31 26.68320 113.80410 35990 ft 485 kts 169°
2026-04-28 06:31 26.61759 113.82475 35995 ft 485 kts 168°
2026-04-28 06:32 26.55269 113.84512 35993 ft 485 kts 168°
2026-04-28 06:32 26.48797 113.86532 35991 ft 486 kts 169°
2026-04-28 06:33 26.42225 113.88436 36022 ft 487 kts 170°
2026-04-28 06:33 26.35697 113.90316 36031 ft 485 kts 170°
2026-04-28 06:34 26.29105 113.92215 36054 ft 487 kts 170°
2026-04-28 06:34 26.22531 113.94110 36099 ft 488 kts 170°
2026-04-28 06:35 26.15976 113.95998 36100 ft 487 kts 170°
2026-04-28 06:35 26.09402 113.97890 36107 ft 488 kts 170°
2026-04-28 06:36 26.02836 113.99778 36107 ft 487 kts 170°
2026-04-28 06:36 25.96257 114.01713 36098 ft 486 kts 169°
2026-04-28 06:37 25.89678 114.03673 36074 ft 489 kts 169°
2026-04-28 06:37 25.83055 114.05642 36056 ft 490 kts 169°
2026-04-28 06:38 25.76497 114.07589 36041 ft 489 kts 169°
2026-04-28 06:38 25.69918 114.09538 36036 ft 489 kts 169°
2026-04-28 06:39 25.63336 114.11486 36038 ft 488 kts 169°
2026-04-28 06:39 25.56735 114.13437 36034 ft 489 kts 169°
2026-04-28 06:40 25.50178 114.15372 36032 ft 489 kts 169°
2026-04-28 06:40 25.43538 114.17330 36026 ft 489 kts 169°
2026-04-28 06:41 25.37007 114.19254 36017 ft 489 kts 169°
2026-04-28 06:41 25.30395 114.21199 36012 ft 488 kts 169°
2026-04-28 06:42 25.23817 114.23132 36010 ft 489 kts 169°
2026-04-28 06:42 25.17225 114.25066 36003 ft 489 kts 169°
2026-04-28 06:43 25.10611 114.26591 35997 ft 482 kts 180°
2026-04-28 06:43 25.03947 114.26091 36000 ft 474 kts 194°
2026-04-28 06:44 24.97471 114.24701 35991 ft 474 kts 194°
2026-04-28 06:44 24.90993 114.23293 35997 ft 475 kts 194°
2026-04-28 06:45 24.84527 114.21889 36011 ft 473 kts 194°
2026-04-28 06:45 24.78051 114.20483 36025 ft 472 kts 195°
2026-04-28 06:46 24.71576 114.19076 36030 ft 474 kts 194°
2026-04-28 06:46 24.65090 114.17670 36025 ft 474 kts 194°
2026-04-28 06:47 24.58633 114.16272 36020 ft 473 kts 195°
2026-04-28 06:47 24.52166 114.14873 36018 ft 473 kts 194°
2026-04-28 06:48 24.45704 114.13477 36013 ft 471 kts 194°
2026-04-28 06:48 24.39238 114.12080 35908 ft 474 kts 194°
2026-04-28 06:48 24.36080 114.11189 35481 ft 473 kts 202°
2026-04-28 06:49 24.33049 114.09792 35048 ft 468 kts 210°
2026-04-28 06:49 24.30234 114.08034 34627 ft 467 kts 213°
2026-04-28 06:49 24.27448 114.06200 34198 ft 468 kts 214°
2026-04-28 06:49 24.24663 114.04281 33763 ft 468 kts 214°
2026-04-28 06:50 24.21919 114.02364 33336 ft 471 kts 214°
2026-04-28 06:50 24.19166 114.00442 32914 ft 472 kts 214°
2026-04-28 06:50 24.16392 113.98509 32522 ft 473 kts 214°
2026-04-28 06:50 24.13607 113.96573 32135 ft 474 kts 214°
2026-04-28 06:51 24.10859 113.94550 31746 ft 474 kts 219°
2026-04-28 06:51 24.08361 113.92223 31366 ft 476 kts 223°
2026-04-28 06:51 24.05908 113.89809 30981 ft 477 kts 223°
2026-04-28 06:51 24.03451 113.87386 30601 ft 474 kts 223°
2026-04-28 06:52 24.01007 113.84978 30219 ft 470 kts 223°
2026-04-28 06:52 23.98567 113.82577 29835 ft 468 kts 223°
2026-04-28 06:52 23.96170 113.80219 29456 ft 467 kts 223°
2026-04-28 06:52 23.93763 113.77854 29074 ft 465 kts 223°
2026-04-28 06:53 23.91371 113.75505 28698 ft 462 kts 223°
2026-04-28 06:53 23.88990 113.73171 28291 ft 456 kts 223°
2026-04-28 06:53 23.86635 113.70861 27925 ft 447 kts 223°
2026-04-28 06:53 23.84332 113.68604 27516 ft 441 kts 223°
2026-04-28 06:54 23.82045 113.66363 27018 ft 452 kts 223°
2026-04-28 06:54 23.79677 113.64044 26456 ft 456 kts 223°
2026-04-28 06:54 23.77341 113.61758 25907 ft 452 kts 223°
2026-04-28 06:54 23.75021 113.59490 25356 ft 448 kts 223°
2026-04-28 06:55 23.72722 113.57243 24806 ft 443 kts 223°
2026-04-28 06:55 23.70427 113.55001 24252 ft 439 kts 223°
2026-04-28 06:55 23.68174 113.52801 23701 ft 435 kts 223°
2026-04-28 06:55 23.65932 113.50613 23154 ft 431 kts 223°
2026-04-28 06:56 23.63707 113.48443 22607 ft 426 kts 223°
2026-04-28 06:56 23.61522 113.46313 22076 ft 423 kts 223°
2026-04-28 06:56 23.59341 113.44187 21547 ft 419 kts 223°
2026-04-28 06:56 23.57188 113.42090 21004 ft 415 kts 223°
2026-04-28 06:57 23.55005 113.40041 20452 ft 412 kts 218°
2026-04-28 06:57 23.52595 113.38381 19916 ft 411 kts 209°
2026-04-28 06:57 23.49952 113.37151 19060 ft 418 kts 202°
2026-04-28 06:57 23.47207 113.36092 18262 ft 420 kts 201°
2026-04-28 06:58 23.44432 113.35037 17629 ft 418 kts 201°
2026-04-28 06:58 23.41684 113.33992 17057 ft 414 kts 201°
2026-04-28 06:58 23.38996 113.32970 16486 ft 411 kts 201°
2026-04-28 06:58 23.36315 113.31951 15928 ft 402 kts 201°
2026-04-28 06:59 23.33683 113.30951 15395 ft 394 kts 201°
2026-04-28 06:59 23.31152 113.29989 14874 ft 386 kts 201°
2026-04-28 06:59 23.28618 113.29026 14349 ft 378 kts 201°
2026-04-28 06:59 23.26156 113.28091 13819 ft 372 kts 201°
2026-04-28 07:00 23.23735 113.27171 13337 ft 364 kts 201°
2026-04-28 07:00 23.21388 113.26282 12907 ft 356 kts 201°
2026-04-28 07:00 23.19055 113.25397 12545 ft 356 kts 201°
2026-04-28 07:00 23.16673 113.24493 12086 ft 365 kts 201°
2026-04-28 07:01 23.14262 113.23579 11522 ft 365 kts 201°
2026-04-28 07:01 23.11896 113.22684 10985 ft 363 kts 201°
2026-04-28 07:01 23.09502 113.21787 10591 ft 356 kts 199°
2026-04-28 07:01 23.07102 113.21356 10508 ft 344 kts 182°
2026-04-28 07:02 23.04773 113.21718 10410 ft 334 kts 167°
2026-04-28 07:02 23.02590 113.22505 10278 ft 324 kts 159°
2026-04-28 07:02 23.00747 113.23839 10138 ft 319 kts 139°
2026-04-28 07:02 22.99325 113.25643 9997 ft 313 kts 128°
2026-04-28 07:03 22.98170 113.27602 9851 ft 306 kts 123°
2026-04-28 07:03 22.97143 113.29604 9687 ft 298 kts 121°
2026-04-28 07:03 22.96175 113.31589 9402 ft 295 kts 121°
2026-04-28 07:03 22.95234 113.33552 9059 ft 295 kts 120°
2026-04-28 07:04 22.94283 113.35541 8697 ft 295 kts 120°
2026-04-28 07:04 22.93340 113.37515 8336 ft 295 kts 120°
2026-04-28 07:04 22.92401 113.39481 7978 ft 295 kts 120°
2026-04-28 07:04 22.91466 113.41438 7616 ft 295 kts 120°
2026-04-28 07:05 22.90528 113.43402 7323 ft 285 kts 120°
2026-04-28 07:05 22.89622 113.45295 6933 ft 287 kts 120°
2026-04-28 07:05 22.88705 113.47223 6618 ft 285 kts 117°
2026-04-28 07:05 22.88173 113.49264 6314 ft 283 kts 99°
2026-04-28 07:06 22.88037 113.51362 5880 ft 280 kts 95°
2026-04-28 07:06 22.87966 113.53462 5515 ft 273 kts 95°
2026-04-28 07:06 22.87897 113.55492 5268 ft 269 kts 95°
2026-04-28 07:06 22.87826 113.57481 5157 ft 258 kts 96°
2026-04-28 07:07 22.87755 113.59390 5066 ft 246 kts 96°
2026-04-28 07:07 22.87686 113.61211 4971 ft 235 kts 96°
2026-04-28 07:07 22.87620 113.62941 4876 ft 225 kts 96°
2026-04-28 07:07 22.87554 113.64575 4785 ft 214 kts 99°
2026-04-28 07:08 22.87113 113.66024 4681 ft 194 kts 130°
2026-04-28 07:08 22.86163 113.67002 4504 ft 184 kts 149°
2026-04-28 07:08 22.85076 113.67703 4234 ft 183 kts 153°
2026-04-28 07:08 22.83971 113.68381 4014 ft 179 kts 153°
2026-04-28 07:09 22.82887 113.69003 3781 ft 175 kts 155°
2026-04-28 07:09 22.81812 113.69587 3560 ft 171 kts 155°
2026-04-28 07:09 22.80753 113.70155 3341 ft 166 kts 155°
2026-04-28 07:09 22.79723 113.70710 3126 ft 163 kts 155°
2026-04-28 07:10 22.78695 113.71267 2908 ft 163 kts 155°
2026-04-28 07:10 22.77722 113.71798 2709 ft 150 kts 154°
2026-04-28 07:10 22.76808 113.72295 2516 ft 144 kts 154°
2026-04-28 07:10 22.75924 113.72777 2326 ft 142 kts 154°
2026-04-28 07:11 22.75034 113.73263 2132 ft 141 kts 154°
2026-04-28 07:11 22.74154 113.73743 1942 ft 141 kts 154°
2026-04-28 07:11 22.73283 113.74219 1748 ft 140 kts 154°
2026-04-28 07:11 22.72404 113.74699 1557 ft 141 kts 154°
2026-04-28 07:12 22.71529 113.75177 1363 ft 140 kts 154°
2026-04-28 07:12 22.70659 113.75652 1175 ft 140 kts 154°
2026-04-28 07:12 22.69784 113.76128 981 ft 141 kts 154°
2026-04-28 07:12 22.68903 113.76610 790 ft 140 kts 154°
2026-04-28 07:13 22.68030 113.77084 586 ft 140 kts 154°
2026-04-28 07:13 22.67164 113.77558 409 ft 140 kts 154°
2026-04-28 07:13 22.66290 113.78028 246 ft 141 kts 154°
2026-04-28 07:13 22.65404 113.78513 62 ft 139 kts 152°
2026-04-28 07:14 22.64573 113.78976 27 ft 122 kts 156°
2026-04-28 07:14 22.63920 113.79324 27 ft 85 kts 154°
2026-04-28 07:14 22.63499 113.79553 27 ft 50 kts 153°
2026-04-28 07:14 22.63296 113.79681 27 ft 28 kts 140°
2026-04-28 07:15 22.63200 113.79801 27 ft 10 kts 125°
2026-04-28 07:15 22.63163 113.79864 27 ft 9 kts 114°
2026-04-28 07:15 22.63172 113.79926 27 ft 8 kts 62°
2026-04-28 07:15 22.63199 113.79981 27 ft 8 kts 63°
2026-04-28 07:16 22.63201 113.80029 27 ft 6 kts 123°
2026-04-28 07:16 22.63168 113.80057 27 ft 5 kts 151°
2026-04-28 07:16 22.63133 113.80077 27 ft 5 kts 151°
2026-04-28 07:16 22.63098 113.80097 27 ft 5 kts 152°
2026-04-28 07:17 22.63066 113.80116 27 ft 5 kts 152°
2026-04-28 07:17 22.63034 113.80134 27 ft 5 kts 153°
2026-04-28 07:17 22.62994 113.80156 27 ft 7 kts 153°
2026-04-28 07:17 22.62935 113.80187 27 ft 10 kts 154°
2026-04-28 07:18 22.62858 113.80227 27 ft 13 kts 155°
2026-04-28 07:18 22.62772 113.80275 27 ft 15 kts 139°
2026-04-28 07:18 22.62716 113.80326 27 ft 7 kts 129°
2026-04-28 07:18 22.62710 113.80362 27 ft 4 kts 91°
2026-04-28 07:19 22.62708 113.80409 27 ft 7 kts 93°
2026-04-28 07:19 22.62707 113.80440 27 ft 2 kts 91°
2026-04-28 07:19 22.62707 113.80452 27 ft 0 kts 91°
2026-04-28 07:19 22.62707 113.80453 27 ft 0 kts 91°